DW0805 Weather Reports


time (UTC)temp
F
wind
direction
speed
knots
gust
knots
rain 1hr
in
rain 24hr
in
rain mn
in
humidity
%
barometer
mb
20260510205513 44 323 0.9 1.7 0.00 0.00 0.00 87 1008.5
20260510204513 44 323 0.0 0.9 0.00 0.00 0.00 87 1008.7
20260510203513 45 322 0.0 0.9 0.00 0.00 0.00 87 1008.8
20260510202513 45 322 0.0 0.9 0.00 0.00 0.00 87 1008.8
20260510200514 46 322 0.9 1.7 0.00 0.00 0.00 85 1009.0
20260510195513 46 323 0.0 0.0 0.00 0.00 0.00 84 1008.9
20260510193514 48 323 0.0 0.0 0.00 0.00 0.00 83 1008.9
20260510192514 48 323 0.0 0.0 0.00 0.00 0.00 83 1008.9
20260510190513 50 341 0.0 0.0 0.00 0.00 0.00 80 1008.9
20260510185511 51 325 0.0 0.0 0.00 0.00 0.00 78 1009.0
20260510184512 51 341 0.0 0.0 0.00 0.00 0.00 77 1009.0
20260510183512 52 323 0.0 0.9 0.00 0.00 0.00 76 1009.1
20260510182512 53 325 0.0 1.7 0.00 0.00 0.00 75 1009.2
20260510165512 56 293 4.3 7.8 0.00 0.00 0.00 71 1010.1
20260510163512 58 335 2.6 5.2 0.00 0.00 0.00 66 1010.2
20260510161513 60 313 4.3 8.7 0.00 0.00 0.00 63 1010.2
20260510160512 61 327 1.7 7.8 0.00 0.00 0.00 66 1010.3
20260510155512 61 342 2.6 7.0 0.00 0.00 0.00 65 1010.4
20260510153511 60 299 2.6 7.8 0.00 0.00 0.00 66 1010.6
20260510152512 60 336 6.1 8.7 0.00 0.00 0.00 63 1010.7
20260510150512 60 334 4.3 7.8 0.00 0.00 0.00 61 1010.9
20260510145512 59 332 5.2 7.8 0.00 0.00 0.00 61 1011.0
20260510141512 60 298 3.5 8.7 0.00 0.00 0.00 57 1011.4
20260510135512 59 290 4.3 10.4 0.00 0.00 0.00 61 1011.6
20260510134513 60 347 6.1 11.3 0.00 0.00 0.00 57 1011.6
20260510130512 61 345 4.3 12.2 0.00 0.00 0.00 49 1011.9
20260510123512 59 345 4.3 10.4 0.00 0.00 0.00 65 1012.1
20260510120512 60 291 6.1 8.7 0.00 0.00 0.00 63 1012.2
20260510114512 58 320 4.3 8.7 0.00 0.00 0.00 75 1012.5
20260510113513 58 287 4.3 11.3 0.00 0.00 0.00 73 1012.6
20260510112512 59 300 4.3 10.4 0.00 0.00 0.00 68 1012.7
20260510111513 60 331 7.0 11.3 0.00 0.00 0.00 67 1012.8
20260510104512 59 279 4.3 10.4 0.00 0.00 0.00 70 1013.0
20260510103512 59 196 2.6 5.2 0.00 0.00 0.00 72 1013.1
20260510093513 55 204 2.6 5.2 0.00 0.00 0.00 78 1013.9
20260510091513 54 227 3.5 6.1 0.00 0.00 0.00 79 1014.1
20260510082512 53 204 1.7 4.3 0.00 0.00 0.00 83 1014.2
20260510075512 53 198 1.7 5.2 0.00 0.00 0.00 83 1014.2
20260510073512 52 151 2.6 5.2 0.00 0.00 0.00 84 1014.3
20260510072512 52 179 2.6 5.2 0.00 0.00 0.00 84 1014.4
20260510070513 51 159 2.6 6.1 0.00 0.00 0.00 84 1014.6
20260510065512 51 165 2.6 7.0 0.00 0.00 0.00 83 1014.7
20260510063513 51 152 3.5 6.1 0.00 0.00 0.00 84 1014.7
20260510062512 50 147 1.7 6.1 0.00 0.00 0.00 85 1014.8
20260510061512 50 169 1.7 6.1 0.00 0.00 0.00 85 1014.9
20260510060512 49 166 0.9 5.2 0.00 0.00 0.00 85 1015.0
20260510055512 49 186 2.6 6.1 0.00 0.00 0.00 86 1015.0
20260510054513 49 156 1.7 4.3 0.00 0.00 0.00 86 1015.0
20260510052512 48 155 2.6 5.2 0.00 0.00 0.00 87 1015.0
20260510051512 48 142 1.7 5.2 0.00 0.00 0.00 87 1015.3
20260510050512 47 137 0.9 4.3 0.00 0.00 0.00 87 1015.4
20260510045512 47 135 1.7 4.3 0.00 0.00 0.00 86 1015.4
20260510042512 46 130 1.7 5.2 0.00 0.00 0.00 87 1015.6
20260510035513 46 109 3.5 6.1 0.00 0.00 0.00 88 1016.0
20260510033512 45 111 3.5 5.2 0.00 0.00 0.00 88 1016.1
20260510031512 44 103 1.7 5.2 0.00 0.00 0.00 89 1016.2
20260510030512 44 106 1.7 5.2 0.00 0.00 0.00 90 1016.2
20260510024513 43 105 0.9 1.7 0.00 0.00 0.00 89 1016.5
20260510022513 44 106 4.3 5.2 0.00 0.00 0.00 88 1016.8
20260510021513 44 121 3.5 5.2 0.00 0.00 0.00 88 1016.9
20260510015512 44 78 0.0 5.2 0.00 0.00 0.00 85 1016.9
20260510014514 44 86 2.6 5.2 0.00 0.00 0.00 85 1016.9
20260510013513 44 98 2.6 4.3 0.00 0.00 0.00 84 1017.1
20260510011512 44 113 2.6 5.2 0.00 0.00 0.00 83 1017.3
20260510004513 44 105 1.7 4.3 0.00 0.00 0.00 82 1017.7
20260510001513 45 105 3.5 5.2 0.00 0.00 0.00 79 1018.4
20260509235512 45 109 2.6 5.2 0.00 0.00 0.00 80 1018.4
20260509233513 44 107 2.6 5.2 0.00 0.00 0.00 81 1018.7
20260509230513 45 105 4.3 5.2 0.00 0.00 0.00 80 1019.0
20260509225512 45 101 4.3 6.1 0.00 0.00 0.00 80 1019.1
20260509222513 48 138 1.7 5.2 0.00 0.00 0.00 79 1019.3
20260509221509 48 161 1.7 5.2 0.00 0.00 0.00 78 1019.3
20260509215513 48 177 0.9 4.3 0.00 0.00 0.00 77 1019.3
20260509213513 49 172 0.9 4.3 0.00 0.00 0.00 76 1019.4
20260509212512 49 186 0.9 4.3 0.00 0.00 0.00 74 1019.4